Ever Ursula — 3FCB9 — position and weather

sailwx.info

Track history (hours):
 
Tides and Currents Weather Stations Pressure Air Temp Water Temp Dewpoint Dewpoint Depression Visibility Wind Speed Wind Dir Waves Ship Positions

Ever Ursula

Last reported at 2014-Oct-25 10:33 UTC. Time now 2014-Oct-25 15:27 UTC.
Position N 38°59' E 117°47'.

Type: Ship (hazmat cat D). MMSI: 357737000.

Date/timePositionNaut miles runAvg speedWind from/ knotsBaromVisibWave heightAir tempDewpointWater temp
2014-Oct-25 10:33N 38°59' E 117°47'0 0.0
2014-Oct-25 09:33N 38°59' E 117°47'0 0.0
2014-Oct-25 08:16N 38°59' E 117°47'0 0.0
2014-Oct-25 07:28N 38°59' E 117°47'4 4.3
2014-Oct-25 06:33N 38°58' E 117°52'11 9.6
2014-Oct-25 05:25N 38°56' E 118°06'152 5.4
2014-Oct-24 01:05N 38°26' E 121°17'713.4
2014-Oct-24 00:32N 38°22' E 121°25'1613.4
2014-Oct-23 23:22N 38°15' E 121°42'1113.4
2014-Oct-23 22:33N 38°10' E 121°54'1413.7
2014-Oct-23 21:34N 38°03' E 122°09'1614.5
2014-Oct-23 20:28N 37°54' E 122°26'1714.1
2014-Oct-23 19:16N 37°45' E 122°44'1613.6
2014-Oct-23 18:05N 37°33' E 122°56'2012.6
2014-Oct-23 16:33N 37°18' E 123°12'  
2014-Oct-21 07:32N 25°40' E 120°44'1414.4
2014-Oct-21 06:33N 25°29' E 120°33'4615.2
2014-Oct-21 03:33N 24°57' E 119°58'1614.6
2014-Oct-21 02:28N 24°45' E 119°46'1313.9
2014-Oct-21 01:33N 24°36' E 119°37'1414.5
2014-Oct-21 00:33N 24°26' E 119°25'1514.5
2014-Oct-20 23:33N 24°16' E 119°14'1313.4
2014-Oct-20 22:33N 24°07' E 119°03'1514.8
2014-Oct-20 21:33N 23°58' E 118°50'1514.5
2014-Oct-20 20:31N 23°50' E 118°36'1414.4
2014-Oct-20 19:33N 23°42' E 118°23'3313.8
2014-Oct-20 17:09N 23°25' E 117°53'813.5
2014-Oct-20 16:33N 23°21' E 117°45'1413.6
2014-Oct-20 15:32N 23°13' E 117°33'3414.6
2014-Oct-20 13:11N 22°55' E 117°01'1015.1
2014-Oct-20 12:33N 22°50' E 116°52'1514.8
2014-Oct-20 11:33N 22°42' E 116°39'2814.0
2014-Oct-20 09:32N 22°27' E 116°13'  
Track history (hours):
 
Tides and Currents Weather Stations Pressure Air Temp Water Temp Dewpoint Dewpoint Depression Visibility Wind Speed Wind Dir Waves Ship Positions

Ever Ursula

Last reported at 2014-Oct-25 10:33 UTC. Time now 2014-Oct-25 15:27 UTC.
Position N 38°59' E 117°47'.

Type: Ship (hazmat cat D). MMSI: 357737000.

Date/timePositionNaut miles runAvg speedWind from/ knotsBaromVisibWave heightAir tempDewpointWater temp
2014-Oct-25 10:33N 38°59' E 117°47'0 0.0
2014-Oct-25 09:33N 38°59' E 117°47'0 0.0
2014-Oct-25 08:16N 38°59' E 117°47'0 0.0
2014-Oct-25 07:28N 38°59' E 117°47'4 4.3
2014-Oct-25 06:33N 38°58' E 117°52'11 9.6
2014-Oct-25 05:25N 38°56' E 118°06'152 5.4
2014-Oct-24 01:05N 38°26' E 121°17'713.4
2014-Oct-24 00:32N 38°22' E 121°25'1613.4
2014-Oct-23 23:22N 38°15' E 121°42'1113.4
2014-Oct-23 22:33N 38°10' E 121°54'1413.7
2014-Oct-23 21:34N 38°03' E 122°09'1614.5
2014-Oct-23 20:28N 37°54' E 122°26'1714.1
2014-Oct-23 19:16N 37°45' E 122°44'1613.6
2014-Oct-23 18:05N 37°33' E 122°56'2012.6
2014-Oct-23 16:33N 37°18' E 123°12'  
2014-Oct-21 07:32N 25°40' E 120°44'1414.4
2014-Oct-21 06:33N 25°29' E 120°33'4615.2
2014-Oct-21 03:33N 24°57' E 119°58'1614.6
2014-Oct-21 02:28N 24°45' E 119°46'1313.9
2014-Oct-21 01:33N 24°36' E 119°37'1414.5
2014-Oct-21 00:33N 24°26' E 119°25'1514.5
2014-Oct-20 23:33N 24°16' E 119°14'1313.4
2014-Oct-20 22:33N 24°07' E 119°03'1514.8
2014-Oct-20 21:33N 23°58' E 118°50'1514.5
2014-Oct-20 20:31N 23°50' E 118°36'1414.4
2014-Oct-20 19:33N 23°42' E 118°23'3313.8
2014-Oct-20 17:09N 23°25' E 117°53'813.5
2014-Oct-20 16:33N 23°21' E 117°45'1413.6
2014-Oct-20 15:32N 23°13' E 117°33'3414.6
2014-Oct-20 13:11N 22°55' E 117°01'1015.1
2014-Oct-20 12:33N 22°50' E 116°52'1514.8
2014-Oct-20 11:33N 22°42' E 116°39'2814.0
2014-Oct-20 09:32N 22°27' E 116°13'  

Dump ship's entire track history